Miscellaneous Local Product
Issued by NWS North Platte, NE

Home | Current Version | Previous Version | Text Only | Print | Product List | Glossary On
Versions: 1 2 3 4 5 6 7 8 9 10 11 12 13 14 15 16 17 18 19 20 21 22 23 24 25 26 27 28 29 30 31 32 33 34 35 36 37 38 39 40 41 42 43 44 45 46 47 48 49 50
000
AXUS43 KLBF 291210
MISLBF


WESTERN AND NORTH CENTRAL NEBRASKA HOURLY WEATHER ROUNDUP
NATIONAL WEATHER SERVICE NORTH PLATTE NE
700 AM CDT FRI JUL 29 2016

NOTE: "FAIR" INDICATES FEW OR NO CLOUDS BELOW 12,000 FEET WITH NO
SIGNIFICANT WEATHER AND/OR OBSTRUCTIONS TO VISIBILITY.

NOTE: STATIONS NOT REPORTING VARIABLES SUCH AS SKY/WEATHER OR
PRESSURE ARE PROVIDED BY RAWS AND APRS NETWORKS AND ARE NOT UNDER
NATIONAL WEATHER SERVICE QUALITY CONTROL.

...OBSERVATIONS IN AND NEAR THE EASTERN PANHANDLE OF NEBRASKA...

CITY           SKY/WX    TMP DP  RH WIND       PRES   REMARKS
PINE RIDGE     FOG       56  56 100 CALM      30.13S VSB<1/4
CHADRON        CLEAR     55  53  93 CALM      30.13S
ALLIANCE       FOG       51  51 100 CALM      30.14S VSB 3/4
SIDNEY         CLEAR     55  54  96 SW3       30.17F
CRESCENT LAKE    N/A     56  56 100 N3          N/A
$$

...OBSERVATIONS IN NORTHERN NEBRASKA AND FAR SOUTHERN SOUTH DAKOTA...

CITY           SKY/WX    TMP DP  RH WIND       PRES   REMARKS
WINNER         MOCLDY    64  62  93 CALM      30.10S FOG
THEDFORD       CLOUDY    61  60  98 NE3       30.14R
AINSWORTH      RAIN      61  61 100 NE6       30.12R
O`NEILL        CLOUDY    64  62  94 CALM      30.09S
ORD            CLOUDY    63  61  93 N3        30.08R
BROKEN BOW     FOG       59  59 100 NW3       30.11R VSB 1/4
VALENTINE NWR    N/A     61  61  99 NE3         N/A
BUTTE            N/A     61  60  95 CALM        N/A
HALSEY           N/A     60  60  99 CALM        N/A
EWING            N/A     63  62  96 CALM        N/A
$$

...OBSERVATIONS IN SOUTHWEST NEBRASKA AND FAR NORTHEAST COLORADO...

CITY           SKY/WX    TMP DP  RH WIND       PRES   REMARKS
WRAY           FAIR     N/A N/A N/A N3        30.12F
IMPERIAL       CLEAR     60  58  92 NE5       30.12S
OGALLALA       CLEAR     59  57  93 CALM      30.12S FOG
NORTH PLATTE   FOG       60  58  92 CALM      30.11S VSB 1/4
MCCOOK         MOCLDY    58  56  93 SE3       30.10R
LEXINGTON      PTCLDY    59  58  95 NW3       30.10R FOG
STAPLETON        N/A     58  57  98 CALM        N/A
GOTHENBURG       N/A     59  56  89 NW3         N/A
CALLAWAY         N/A     56  55  98 CALM        N/A
$$

...OBSERVATIONS IN CENTRAL LINCOLN COUNTY AREA...

CITY           SKY/WX    TMP DP  RH WIND       PRES   REMARKS
N.P. AIRPORT   FOG       60  58  92 CALM      30.11S VSB 1/4
N.P. DOWNTOWN    N/A     60  60 100 CALM        N/A
N.P. SOUTHEAST   N/A     60  59  96 CALM        N/A
N.P. HILLCREST   N/A     59  58  97 CALM        N/A
$$

...SOME OBSERVATIONS FROM AROUND THE REGION...

CITY           SKY/WX    TMP DP  RH WIND       PRES   REMARKS
DENVER         PTCLDY    60  57  89 SE9       30.19S
LARAMIE        CLEAR     53  51  93 S9        30.29S
CHEYENNE       CLEAR     57  56  96 SW9       30.24S
SCOTTSBLUFF    CLEAR     58  56  93 CALM      30.15F
RAPID CITY     CLEAR     52  52 100 CALM      30.13S FOG
BISMARCK       CLOUDY    62  61  96 CALM      30.09S
PIERRE         MOCLDY    62  61  96 SW5       30.08R
SIOUX FALLS    PTCLDY    57  54  89 CALM      30.08R
OMAHA          CLOUDY    67  63  87 N8        30.02R
GRAND ISLAND   MOCLDY    64  62  93 N5        30.07R
KANSAS CITY    CLOUDY    69  63  81 N5        30.01R
WICHITA        LGT RAIN  71  68  90 SW7       30.03R
OKLAHOMA CITY  TSTM      68  66  93 N31G52    30.08R FOG
DALLAS         PTCLDY    77  71  82 S5        29.97R
AMARILLO       CLOUDY    69  62  78 NW12      30.14R
DODGE CITY     CLOUDY    65  63  93 S5        30.08F
HAYS           PTCLDY    66  59  77 N10       30.05R
GOODLAND       CLOUDY    61  59  93 CALM      30.12R
$$




USA.gov is the U.S. government's official web portal to all federal, state and local government web resources and services.